HST,Max TemperatureF,Mean TemperatureF,Min TemperatureF,Max Dew PointF,MeanDew PointF,Min DewpointF,Max Humidity, Mean Humidity, Min Humidity, Max Sea Level PressureIn, Mean Sea Level PressureIn, Min Sea Level PressureIn, Max VisibilityMiles, Mean VisibilityMiles, Min VisibilityMiles, Max Wind SpeedMPH, Mean Wind SpeedMPH, Max Gust SpeedMPH,PrecipitationIn, CloudCover, Events, WindDirDegrees
2014-3-1,84,77,70,71,68,64,100,79,58,29.99,29.94,29.89,10,10,9,23,12,28,0.05,5,Rain,188
2014-3-2,75,72,68,72,68,66,100,87,74,30.00,29.92,29.86,10,9,2,23,7,29,0.77,7,Rain,200
2014-3-3,77,70,62,68,63,56,93,73,53,29.97,29.90,29.84,10,10,4,24,8,30,0.12,6,Rain,200
2014-3-4,80,70,59,61,58,55,93,71,48,30.06,29.99,29.93,10,10,10,14,6,18,0.00,2,,101
2014-3-5,82,70,58,65,60,54,93,69,45,30.08,30.02,29.96,10,10,10,18,7,23,0.00,2,,99
2014-3-6,84,74,63,71,66,60,93,74,55,30.04,29.99,29.92,10,10,9,23,10,29,0.02,4,Rain,183
2014-3-7,83,77,70,72,69,65,97,80,62,30.05,29.98,29.92,10,8,1,25,11,30,0.44,7,Rain,207
2014-3-8,79,74,68,70,68,66,100,85,69,30.12,30.05,29.99,10,10,10,14,4,15,0.12,5,Rain,43
2014-3-9,82,76,70,72,70,68,100,84,67,30.11,30.06,30.01,10,10,8,24,13,32,0.01,7,Rain,55
2014-3-10,83,77,70,70,66,63,93,76,58,30.09,30.05,29.99,10,10,10,21,10,24,T,5,,59
2014-3-11,81,74,66,65,63,61,87,71,54,30.08,30.04,29.99,10,10,10,15,7,21,0.00,1,,36
2014-3-12,83,76,68,68,66,62,87,73,58,30.11,30.06,30.00,10,10,10,24,11,30,0.01,2,Rain,49
2014-3-13,83,76,69,69,66,64,90,73,55,30.12,30.07,30.02,10,10,9,25,14,35,0.05,2,Rain,49
2014-3-14,82,76,70,72,69,67,93,81,69,30.12,30.08,30.03,10,10,7,20,11,24,0.06,6,Rain,40
2014-3-15,80,76,71,70,65,45,93,78,62,30.17,30.09,30.02,10,8,2,26,16,32,0.30,8,Rain,31
2014-3-16,79,73,67,64,60,32,68,54,40,30.17,30.11,30.06,10,10,10,29,22,36,0.01,6,Rain,42
2014-3-17,78,74,69,64,61,32,78,68,58,30.12,30.06,30.01,10,10,10,23,17,29,T,5,,47
2014-3-18,80,73,65,65,62,59,87,71,54,30.04,30.00,29.94,10,10,10,21,12,24,T,4,Rain,50
2014-3-19,81,72,62,64,62,60,93,74,54,30.04,29.98,29.93,10,10,10,20,9,24,0.00,1,,44
2014-3-20,83,71,59,69,64,57,97,76,55,30.08,30.03,29.99,10,10,10,23,10,25,0.00,2,,52
2014-3-21,80,75,70,72,70,68,100,87,74,30.09,30.05,30.01,10,9,2,23,13,29,0.58,7,Rain,50
2014-3-22,79,76,72,72,70,68,93,84,74,30.11,30.06,30.02,10,10,2,22,16,28,0.47,7,Rain,45
2014-3-23,80,76,72,70,68,67,90,81,71,30.16,30.10,30.03,10,10,9,24,18,29,0.04,7,Rain,42
2014-3-24,80,76,72,68,67,64,90,76,62,30.19,30.14,30.09,10,10,10,28,19,33,0.01,5,Rain,46
2014-3-25,83,77,71,71,69,68,93,78,63,30.17,30.11,30.04,10,10,10,26,16,35,T,2,,57
2014-3-26,86,77,67,72,70,67,100,81,61,30.15,30.10,30.04,10,10,10,21,7,25,0.00,2,,93
2014-3-27,86,76,65,72,69,64,100,79,58,30.12,30.07,30.00,10,10,10,20,5,25,0.00,3,,94
2014-3-28,84,76,68,73,70,67,97,94,90,30.10,30.06,30.01,10,9,2,16,3,21,0.58,4,Rain,114
2014-3-29,81,72,63,72,67,62,100,80,60,30.05,30.01,29.97,10,10,10,16,8,20,T,3,Rain,36
2014-3-30,84,75,66,69,66,63,93,74,55,30.04,30.00,29.96,10,10,10,24,9,31,0.00,2,,62
2014-3-31,81,77,72,72,69,68,93,84,74,30.06,30.01,29.97,10,10,10,21,13,29,T,4,Rain,57